Regional Weather Roundup
Issued by NWS Cleveland, OH

Home | Current Version | Previous Version | Text Only | Print | Product List | Glossary Off
Versions: 1 2 3 4 5 6 7 8 9 10 11 12 13 14 15 16 17 18 19 20 21 22 23 24 25 26 27 28 29 30 31 32 33 34 35 36 37 38 39 40 41 42 43 44 45 46 47 48 49 50

000
ASUS41 KCLE 220310
RWRCLE
OHIO REGIONAL WEATHER ROUNDUP
NATIONAL WEATHER SERVICE WILMINGTON, OH
1100 PM EDT TUE OCT 21 2014

NOTE: "FAIR" INDICATES FEW OR NO CLOUDS BELOW 12,000 FEET WITH NO
SIGNIFICANT WEATHER AND/OR OBSTRUCTIONS TO VISIBILITY.

OHZ001>008-015>018-024>027-034-035-043-044-220400-
   NORTHWEST OHIO

CITY           SKY/WX    TMP DP  RH WIND       PRES   REMARKS
DEFIANCE       CLOUDY    45  37  73 N6        30.23R
FINDLAY        CLOUDY    46  38  73 N9        30.19R
TOLEDO EXPRESS CLOUDY    44  37  76 N8        30.21R
TOLEDO METCALF CLOUDY    46  36  68 N12       30.21R
LIMA           CLOUDY    45  37  73 N9        30.20R
$$

OHZ009>014-019>023-028>033-038-089-220400-
   NORTHEAST OHIO

CITY           SKY/WX    TMP DP  RH WIND       PRES   REMARKS
CLE-HOPKINS    LGT RAIN  47  44  90 N13       30.14R
CLE-LAKEFRONT  CLOUDY    50  44  80 N18G25    30.11R
CUY CO. ARPT   DRIZZLE   48  48 100 NE12      30.10S FOG
LORAIN-ELYRIA  CLOUDY    47  43  86 N10G20    30.13R
ASHTABULA      CLOUDY    47  45  93 N8        30.10R
AKRON-CANTON   CLOUDY    47  44  90 N8G17     30.08R FOG
WOOSTER        CLOUDY    47  44  90 N9        30.11R
MANSFIELD      LGT RAIN  43  42  97 NW12      30.13R FOG
YOUNGSTOWN     CLOUDY    47  45  93 N13       30.05R
$$

OHZ042-051>053-060>062-070>072-077>081-220400-
  SOUTHWEST OHIO

CITY           SKY/WX    TMP DP  RH WIND       PRES   REMARKS
CINC-COVINGTON PTCLDY    47  40  76 N7        30.17R
CINC-LUNKEN    CLOUDY    49  40  71 N9        30.19R
HAMILTON       CLOUDY    49  41  74 NE8       30.19R
DAYTON         CLOUDY    47  37  68 N9        30.19S
WRIGHT-PAT AFB CLOUDY    47  37  70 N10       30.18S
DAYTON GENERAL CLOUDY    46  37  71 N10       30.17S
WILMINGTON     CLOUDY    46  36  68 N13       30.16R
$$

OHZ036-037-039>041-045>050-054>059-063>069-073>076-082>088-220400-
  CENTRAL AND SOUTHEAST OHIO

CITY           SKY/WX    TMP DP  RH WIND       PRES   REMARKS
COLUMBUS       CLOUDY    45  39  79 NW14      30.15R
OSU AIRPORT    CLOUDY    45  39  79 N14       30.15S
BOLTON FIELD   CLOUDY    45  40  85 N8        30.16S
RICKENBACK AFB CLOUDY    46  39  79 N12       30.15S
NEWARK         CLOUDY    46  40  79 NW9       30.13S
MARION         CLOUDY    43  41  93 N10       30.16S
LANCASTER      CLOUDY    46  40  79 N7        30.14S
ZANESVILLE     CLOUDY    45  40  82 NW10      30.11R
NEW PHILLY     CLOUDY    47  44  90 NW8       30.09R FOG
$$



USA.gov is the U.S. government's official web portal to all federal, state and local government web resources and services.